Wind_Speed
16 16 17 17 17 17 17 17 18 18 18 18 19 19 19 19 19 19 19 19 18 18 18 18 18 19 19 18 18 18 19 19 19 19 19 19 19 19
15 16 16 17 17 17 18 17 18 18 18 19 19 20 20 20 20 19 19 19 20 20 19 19 19 19 19 19 18 18 18 19 19 19 19 19 19 20
17 17 17 17 17 17 17 17 18 18 18 18 18 19 19 20 20 20 20 20 21 21 21 20 20 20 19 19 19 19 19 19 19 20 20 21 20 20
17 17 18 18 18 18 18 18 18 18 19 19 19 19 19 20 21 21 21 21 21 21 20 20 20 20 20 20 20 19 19 19 20 20 21 21 21 21
19 19 18 18 18 18 18 18 18 18 19 19 19 20 20 20 21 21 21 21 21 21 21 20 20 20 20 20 20 20 20 20 20 21 21 21 21 21
19 19 19 18 18 18 18 18 19 19 19 20 20 20 21 21 21 21 21 21 21 21 21 21 21 21 21 21 21 21 21 21 22 22 22 23 23 24
19 19 19 19 18 18 18 19 19 20 20 20 21 21 21 22 21 21 21 21 22 22 22 22 22 22 22 22 22 22 22 23 23 24 24 25 25 26
18 19 19 18 18 19 19 19 20 20 21 21 21 22 22 22 22 22 22 22 23 23 23 23 23 23 23 23 23 23 23 24 25 26 26 26 27 27
19 19 19 19 19 19 20 21 21 21 22 22 22 22 23 23 23 23 23 23 23 24 24 24 24 24 24 25 25 25 25 25 26 27 28 28 29 30
20 20 20 20 19 20 20 21 21 22 22 23 23 23 23 23 23 24 24 24 24 25 26 26 26 26 26 27 27 27 27 28 28 29 29 30 31 31
22 21 21 21 21 21 21 22 22 22 23 23 24 24 24 23 23 24 25 26 26 26 27 27 28 28 29 29 29 29 29 30 30 30 31 31 32 32
23 23 23 23 23 24 24 24 24 24 24 24 24 24 24 24 25 25 26 26 27 27 28 29 29 30 30 30 31 31 31 32 32 32 33 33 33 33
25 25 25 25 25 26 26 25 25 25 25 25 25 25 25 25 26 26 27 28 29 29 30 31 31 31 32 31 32 32 32 33 33 34 34 34 34 34
26 26 27 27 27 27 26 26 26 27 27 27 27 27 26 27 27 27 28 29 30 30 31 31 31 32 33 33 33 33 33 33 34 34 35 34 34 34
27 27 28 29 28 28 27 27 28 28 28 28 28 28 28 28 28 29 29 30 30 31 32 33 33 33 33 33 34 34 34 34 35 35 34 34 35 35
29 29 29 29 29 29 29 29 29 29 29 29 29 30 30 31 31 30 30 31 32 32 33 34 34 34 33 34 34 35 35 34 34 34 35 35 36 36
30 29 29 30 30 30 30 29 30 30 30 30 30 31 31 32 32 32 32 33 33 34 34 34 35 35 35 35 35 35 35 35 34 35 35 36 36 37
30 30 30 30 31 31 30 30 30 31 31 32 32 32 32 32 33 33 33 33 34 34 34 34 35 35 35 35 35 35 35 36 36 36 36 36 37 38
30 30 31 31 31 31 31 31 32 32 32 33 33 33 34 34 34 34 34 34 34 35 35 35 35 35 35 35 35 36 37 37 38 38 38 38 38 38
31 32 32 32 32 33 33 33 34 34 34 34 35 34 35 35 35 35 35 36 35 35 35 35 35 35 36 36 37 37 38 38 38 38 39 39 39 39
32 32 32 32 33 34 34 34 35 35 35 35 35 35 35 35 35 35 36 36 36 36 35 35 35 36 36 37 38 38 39 39 39 39 40 40 40 40
32 32 33 33 34 34 35 34 35 35 35 35 35 35 35 35 35 35 35 35 36 36 36 36 36 37 38 39 39 40 40 40 40 41 41 41 40 40
32 32 32 33 33 34 35 34 34 34 34 34 34 35 35 35 34 35 35 36 36 36 37 37 38 38 39 40 40 40 41 41 41 40 40 41 41 42
Wind_Direction
273 272 272 273 273 272 271 270 269 267 264 265 265 264 264 263 264 265 265 266 266 266 268 270 270 271 271 270 270 270 271 273 274 274 273 272 271 270
274 274 275 276 275 275 271 270 270 267 265 267 265 264 263 262 263 264 264 264 264 265 268 269 270 271 271 270 271 272 273 274 274 273 273 273 272 271
273 275 276 277 276 276 273 271 269 267 267 268 266 264 265 264 264 264 265 265 265 266 268 268 269 270 270 269 270 271 272 275 274 273 273 275 274 273
272 273 276 278 275 273 273 272 270 269 268 268 266 265 267 266 266 265 265 265 264 265 266 268 269 269 268 269 269 270 271 274 275 275 275 276 275 273
272 274 276 277 275 274 274 272 270 270 269 268 268 267 268 268 268 268 267 266 264 265 265 267 269 270 269 268 268 270 271 273 274 275 276 275 275 274
272 273 275 275 273 274 274 273 271 270 272 270 269 269 268 270 270 269 267 267 265 265 265 267 268 269 270 269 269 270 272 273 275 276 276 275 274 275
272 272 275 274 272 272 273 273 272 272 272 272 270 270 270 271 270 269 267 266 266 266 265 266 268 269 271 272 273 275 275 275 275 276 277 276 275 274
273 272 273 273 272 272 272 272 272 273 273 273 273 271 270 270 269 269 268 266 266 266 266 267 268 269 270 271 273 274 276 277 277 277 278 277 277 276
274 274 274 272 274 273 271 271 272 274 274 274 275 273 271 270 269 268 267 267 268 269 268 268 268 269 270 271 272 273 275 277 278 279 278 278 278 277
275 277 276 275 275 274 274 273 273 274 275 275 274 274 273 271 270 268 267 268 269 270 270 270 269 270 271 272 273 273 274 277 278 278 277 278 279 278
274 275 276 274 273 274 275 276 276 275 275 275 274 273 274 273 271 269 269 269 270 271 272 272 271 272 272 274 274 274 276 277 277 277 278 278 279 278
273 274 275 275 274 274 274 276 278 277 277 277 276 275 274 273 271 270 270 270 272 273 274 274 272 273 274 275 276 276 277 278 279 278 278 278 279 278
272 273 274 274 274 275 275 275 276 277 277 277 277 276 275 274 273 270 270 271 272 274 274 275 274 273 274 275 276 277 278 279 280 279 279 278 278 278
272 273 274 275 275 277 276 274 275 275 276 277 276 275 275 275 274 272 271 271 271 273 274 275 275 274 274 275 275 276 278 280 280 280 279 278 277 278
272 273 275 276 277 277 277 277 277 277 277 277 277 275 275 275 275 274 272 272 272 272 274 275 275 275 275 275 276 277 278 279 280 279 279 279 278 278
272 273 275 276 276 278 278 278 279 278 278 278 277 276 275 274 275 275 274 274 274 273 274 275 275 275 275 276 277 279 280 279 279 279 278 277 277 277
274 275 276 277 277 277 276 276 277 278 278 278 278 278 276 275 275 276 275 275 275 274 273 273 273 274 275 276 278 279 280 280 280 280 280 280 278 277
274 275 276 277 277 276 276 276 277 278 278 277 277 277 277 276 276 276 275 276 276 276 275 275 275 276 276 277 278 280 281 280 280 280 281 282 281 280
274 275 276 276 276 276 277 278 279 279 279 278 277 276 277 277 276 277 277 277 278 277 275 275 276 277 277 278 280 281 282 281 280 280 280 281 282 281
273 275 275 276 276 277 279 280 280 279 279 278 278 277 276 277 277 277 277 276 277 277 277 276 276 278 280 281 282 282 282 282 281 281 281 281 281 281
273 274 275 276 278 278 279 280 280 280 280 279 278 277 278 278 278 277 277 277 276 277 277 277 277 278 279 281 282 283 283 282 282 282 282 282 282 282
274 274 276 277 278 279 280 279 279 280 279 279 279 278 278 278 278 277 277 276 276 276 275 276 277 278 280 282 282 283 282 283 283 283 282 282 282 282
272 274 276 278 279 280 281 280 280 280 280 280 280 280 279 278 278 277 276 276 276 276 276 277 278 279 281 282 283 283 283 283 283 283 282 282 283 284
Height
5813 5813 5812 5811 5811 5810 5809 5809 5809 5808 5808 5808 5808 5808 5808 5808 5808 5808 5809 5809 5809 5809 5809 5808 5808 5808 5808 5808 5807 5807 5806 5806 5806 5805 5805 5805 5804 5804
5808 5808 5807 5806 5806 5805 5804 5804 5803 5803 5803 5803 5803 5803 5803 5803 5803 5803 5803 5803 5804 5804 5804 5804 5803 5803 5803 5802 5802 5802 5802 5801 5801 5801 5800 5800 5799 5799
5803 5803 5802 5801 5800 5800 5799 5799 5798 5798 5798 5798 5798 5797 5797 5798 5797 5798 5798 5798 5798 5798 5798 5798 5798 5798 5798 5797 5797 5797 5797 5796 5796 5795 5795 5795 5794 5793
5798 5798 5797 5796 5795 5795 5794 5794 5793 5793 5793 5792 5792 5792 5792 5792 5792 5792 5792 5792 5792 5792 5792 5793 5792 5792 5792 5792 5792 5792 5791 5791 5791 5790 5790 5789 5789 5788
5792 5792 5791 5790 5790 5789 5789 5788 5788 5788 5787 5787 5787 5787 5787 5786 5786 5786 5786 5786 5786 5786 5787 5787 5787 5787 5786 5786 5786 5786 5786 5786 5785 5785 5784 5783 5783 5782
5786 5786 5786 5785 5784 5784 5783 5783 5782 5782 5782 5781 5781 5781 5781 5780 5780 5780 5780 5780 5780 5780 5781 5781 5781 5781 5781 5781 5780 5780 5780 5780 5779 5779 5778 5777 5777 5777
5781 5780 5780 5780 5779 5778 5778 5777 5777 5777 5776 5776 5775 5775 5775 5774 5774 5774 5774 5774 5774 5774 5774 5775 5775 5775 5775 5774 5774 5774 5773 5773 5773 5772 5771 5770 5770 5770
5775 5775 5774 5774 5773 5773 5772 5771 5771 5771 5770 5770 5769 5769 5768 5768 5768 5767 5767 5768 5768 5769 5768 5768 5768 5768 5768 5768 5768 5767 5767 5766 5765 5765 5764 5763 5762 5762
5769 5769 5768 5768 5767 5767 5766 5766 5765 5764 5764 5763 5763 5762 5761 5761 5761 5761 5761 5761 5762 5762 5761 5761 5761 5761 5761 5761 5760 5760 5759 5758 5758 5757 5756 5755 5754 5753
5763 5763 5762 5762 5761 5760 5760 5759 5759 5758 5757 5757 5756 5755 5755 5754 5754 5755 5754 5754 5755 5754 5754 5754 5754 5754 5754 5753 5752 5752 5751 5750 5749 5748 5747 5746 5745 5744
5757 5757 5756 5756 5755 5754 5753 5753 5752 5751 5750 5749 5749 5748 5747 5747 5747 5747 5747 5747 5747 5747 5746 5746 5746 5746 5745 5745 5744 5743 5742 5741 5740 5739 5738 5736 5735 5733
5751 5750 5750 5749 5748 5747 5747 5746 5745 5744 5743 5742 5741 5741 5740 5740 5740 5739 5739 5739 5739 5739 5739 5738 5737 5737 5736 5735 5735 5733 5733 5732 5730 5729 5728 5727 5725 5723
5743 5743 5742 5742 5741 5740 5739 5738 5737 5736 5735 5735 5734 5733 5732 5732 5732 5731 5731 5731 5731 5731 5730 5729 5728 5727 5727 5726 5725 5724 5723 5721 5720 5719 5718 5716 5715 5713
5736 5735 5734 5734 5733 5732 5731 5730 5729 5728 5727 5727 5726 5725 5725 5724 5723 5723 5722 5722 5722 5721 5720 5720 5719 5718 5717 5716 5715 5714 5713 5711 5710 5709 5707 5705 5704 5703
5727 5727 5726 5725 5724 5723 5722 5721 5720 5720 5719 5718 5717 5717 5716 5716 5715 5714 5713 5713 5712 5712 5711 5710 5709 5708 5707 5706 5705 5704 5702 5701 5700 5698 5696 5695 5693 5692
5719 5718 5717 5716 5715 5714 5713 5713 5711 5711 5710 5709 5708 5708 5707 5706 5705 5704 5704 5703 5702 5701 5700 5699 5699 5698 5697 5696 5695 5693 5692 5690 5689 5687 5686 5684 5682 5681
5709 5709 5708 5707 5706 5705 5704 5703 5702 5701 5700 5699 5699 5698 5697 5696 5695 5694 5694 5693 5692 5691 5690 5689 5688 5687 5686 5685 5684 5683 5681 5680 5678 5676 5675 5673 5671 5670
5699 5699 5698 5697 5696 5696 5695 5694 5693 5692 5691 5690 5689 5688 5687 5686 5685 5684 5683 5682 5681 5680 5679 5678 5677 5676 5675 5674 5673 5671 5670 5668 5667 5665 5663 5662 5660 5657
5689 5689 5688 5687 5686 5686 5685 5684 5683 5681 5680 5679 5678 5677 5676 5675 5674 5673 5672 5671 5670 5669 5668 5667 5666 5665 5664 5663 5663 5660 5658 5657 5655 5653 5651 5649 5648 5645
5679 5679 5678 5677 5676 5675 5674 5673 5672 5670 5669 5668 5666 5665 5664 5663 5663 5662 5661 5660 5659 5658 5657 5656 5655 5654 5652 5652 5650 5649 5646 5644 5642 5641 5639 5637 5635 5633
5669 5668 5667 5667 5665 5664 5663 5662 5660 5659 5657 5656 5655 5654 5652 5652 5651 5650 5649 5648 5647 5646 5645 5645 5643 5642 5640 5639 5638 5636 5634 5631 5630 5628 5626 5624 5622 5620
5658 5657 5657 5656 5654 5653 5652 5650 5649 5647 5645 5644 5643 5642 5640 5640 5639 5638 5637 5636 5635 5634 5633 5633 5631 5630 5628 5627 5625 5623 5621 5619 5616 5614 5612 5610 5608 5606
5647 5646 5646 5645 5643 5642 5640 5638 5637 5635 5634 5632 5631 5630 5628 5627 5627 5626 5625 5624 5623 5622 5621 5620 5619 5618 5616 5614 5612 5610 5607 5605 5603 5601 5599 5596 5594 5592